User: anonymous
Location: Unspecified
(0.0000°N, 0.0000°E)
Time: 20:34:07
(UTC+02:00)
Language:

Cosmos 2082 Rocket - Orbit

View from above orbital plane
View from above orbital plane
View from above satellite
View from above satellite

Ground track
Ground track

The orbit data is extracted from the following two-line orbital elements,

1 20625U 90046B   14243.27830675 -.00000008  00000-0  20557-4 0  7974
2 20625 070.9987 131.7091 0015570 224.4602 268.3379 14.14528717253465
Epoch (UTC): 31 August 2014 06:40:45
Eccentricity: 0.0015570
inclination: 70.9987°
perigee height: 832 km
apogee height: 855 km
right ascension of ascending node: 131.7091°
argument of perigee: 224.4602°
revolutions per day: 14.14528717
mean anomaly at epoch: 268.3379°
orbit number at epoch: 25346

The dashed part of the orbit path shows where the satellite is in the earth's shadow,  

DLR